Regional Weather Roundup
Issued by NWS Charleston, WV

Home | Current Version | Previous Version | Graphics & Text | Print | Product List | Glossary On
Versions: 1 2 3 4 5 6 7 8 9 10 11 12 13 14 15 16 17 18 19 20 21 22 23 24 25 26 27 28 29 30 31 32 33 34 35 36 37 38 39 40 41 42 43 44 45 46 47 48 49 50
000
ASUS41 KRLX 251410
RWRRLX
West Virginia Regional Weather Roundup
National Weather Service Charleston WV
900 AM EST SUN JAN 25 2015

Note: "fair" indicates few or no clouds below 12,000 feet with no
significant weather and/or obstructions to visibility.

WVZ003-251500-
Northern Panhandle of West Virginia

CITY           SKY/WX    TMP DP  RH WIND       PRES   REMARKS
WHEELING       CLOUDY    33  30  88 SW9       29.76S FOG
$$

WVZ009-251500-
Northwest West Virginia

CITY           SKY/WX    TMP DP  RH WIND       PRES   REMARKS
PARKERSBURG    MOSUNNY   33  31  92 S6        29.82S FOG
$$

WVZ006-251500-
Western West Virginia

CITY           SKY/WX    TMP DP  RH WIND       PRES   REMARKS
HUNTINGTON     MOSUNNY   35  31  85 S3        29.78S
$$

WVZ015-251500-
West Central West Virginia

CITY           SKY/WX    TMP DP  RH WIND       PRES   REMARKS
CHARLESTON     PTSUNNY   33  31  92 CALM      29.80F
$$

WVZ022-031-251500-
North Central West Virginia

CITY           SKY/WX    TMP DP  RH WIND       PRES   REMARKS
CLARKSBURG     CLOUDY    34  31  88 SW6       29.79S
MORGANTOWN     CLOUDY    34  29  82 SW3       29.79S HAZE
$$

WVZ025-035-042-045-251500-
Southern West Virginia

CITY           SKY/WX    TMP DP  RH WIND       PRES   REMARKS
BECKLEY        PTSUNNY   33  27  78 SW7       29.80S
LOGAN            N/A     36  30  80 S7        29.80S
BLUEFIELD      MOSUNNY   33  27  78 SW5       29.82S
LEWISBURG      CLOUDY    33  31  92 SE3       29.83R FOG
$$

WVZ047-251500-
Northern Mountains of West Virginia

CITY           SKY/WX    TMP DP  RH WIND       PRES   REMARKS
ELKINS         CLOUDY    35  31  85 S6        29.78S
$$

WVZ052-251500-
Eastern Panhandle of West Virginia

CITY           SKY/WX    TMP DP  RH WIND       PRES   REMARKS
MARTINSBURG    CLOUDY    41  28  60 S7        29.80S
PETERSBURG     CLOUDY    42  28  56 S3        29.81R
$$



USA.gov is the U.S. government's official web portal to all federal, state and local government web resources and services.